Location: Caltech
(34.1382°N, 118.1253°W)
Time: 02:03:48
(UTC-07:00)

ERBS - Visible Passes

Search period start: 30 July 2014 00:00
Search period end: 09 August 2014 00:00
Orbit: 471 x 487 km, 57.0° (Epoch: 28 July)

Date Brightness Start Highest point End Pass type
(mag) Time Alt. Az. Time Alt. Az. Time Alt. Az.
30 Jul 5.1 02:56:57 21° NE 02:56:57 21° NE 02:58:16 10° NE visible
31 Jul 5.8 02:29:55 13° NE 02:29:55 13° NE 02:30:18 10° NE visible
31 Jul 5.1 04:04:06 11° NW 04:04:39 11° NW 04:05:56 10° NNW visible
01 Aug 5.2 03:37:01 13° NNW 03:37:01 13° NNW 03:38:26 10° N visible
02 Aug 5.4 03:09:52 13° NNW 03:09:52 13° NNW 03:10:46 10° N visible
03 Aug 5.8 02:42:42 11° N 02:42:42 11° N 02:43:02 10° N visible
